When you browse on this site, cookies collect data to enhance your experience and personalize the content and advertising you see.
Visit our Privacy Policy to learn more. By continuing to use the site, you agree to this use of cookies and data.
  • In United Kingdom
  • List of Countries
  • For 7 days
  • Water Temperature
  • Weather Map
  • Weather Widgets
  • user-avatar
    Login

    Hourly Weather Brest

    Today, 20 February, Thursday

    Time Temperature Precipitation Wind Pressure Humidity
    00:00 +2°C° 0 mm 3 mps 747 mmHg 82%
    01:00 +3°C° 0 mm 2 mps 747 mmHg 87%
    02:00 +3°C° 0 mm 2 mps 747 mmHg 93%
    03:00 +2°C° 0.1 mm 3 mps 748 mmHg 91%
    04:00 +1°C° 0.1 mm 4 mps 748 mmHg 89%
    05:00 +1°C° 0.1 mm 5 mps 748 mmHg 86%
    06:00 +1°C° 0 mm 4 mps 749 mmHg 86%
    07:00 +1°C° 0 mm 4 mps 749 mmHg 85%
    08:00 +1°C° 0 mm 4 mps 750 mmHg 85%
    09:00 +1°C° 0 mm 4 mps 750 mmHg 82%
    10:00 +1°C° 0 mm 4 mps 751 mmHg 80%
    11:00 +3°C° 0 mm 3 mps 752 mmHg 77%
    12:00 +3°C° 0 mm 3 mps 752 mmHg 75%
    13:00 +3°C° 0 mm 3 mps 752 mmHg 73%
    14:00 +4°C° 0 mm 3 mps 752 mmHg 70%
    15:00 +5°C° 0 mm 2 mps 752 mmHg 69%
    16:00 +5°C° 0 mm 2 mps 752 mmHg 68%
    17:00 +5°C° 0 mm 2 mps 753 mmHg 67%
    18:00 +5°C° 0 mm 1 mps 753 mmHg 70%
    19:00 +5°C° 0 mm 1 mps 753 mmHg 73%
    20:00 +4°C° 0 mm 1 mps 753 mmHg 76%
    21:00 +4°C° 0 mm 1 mps 753 mmHg 76%
    22:00 +2°C° 0 mm 2 mps 753 mmHg 76%
    23:00 +2°C° 0 mm 2 mps 753 mmHg 77%

    Tomorrow, 21 February, Friday

    Time Temperature Precipitation Wind Pressure Humidity
    00:00 +2°C° 0 mm 2 mps 753 mmHg 77%
    01:00 0°C° 0 mm 3 mps 752 mmHg 77%
    02:00 0°C° 0 mm 3 mps 752 mmHg 78%
    03:00 -1°C° 0 mm 4 mps 751 mmHg 80%
    04:00 -1°C° 0 mm 4 mps 751 mmHg 82%
    05:00 -1°C° 0 mm 5 mps 750 mmHg 84%
    06:00 -1°C° 0 mm 5 mps 750 mmHg 82%
    07:00 -1°C° 0 mm 5 mps 749 mmHg 80%
    08:00 -2°C° 0 mm 6 mps 749 mmHg 78%
    15:00 +1°C° 0.4 mm 6 mps 748 mmHg 95%
    16:00 +1°C° 0.4 mm 6 mps 748 mmHg 95%
    17:00 +1°C° 0.4 mm 6 mps 748 mmHg 95%
    18:00 +1°C° 0.1 mm 5 mps 749 mmHg 91%
    19:00 +1°C° 0.1 mm 4 mps 750 mmHg 88%
    20:00 +2°C° 0.1 mm 3 mps 751 mmHg 84%
    21:00 +1°C° 0 mm 3 mps 752 mmHg 84%
    22:00 +1°C° 0 mm 3 mps 752 mmHg 84%
    23:00 +1°C° 0 mm 3 mps 752 mmHg 83%

    Day after tomorrow, 22 February, Saturday

    Time Temperature Precipitation Wind Pressure Humidity
    00:00 0°C° 0 mm 3 mps 753 mmHg 85%
    01:00 0°C° 0 mm 3 mps 754 mmHg 86%
    02:00 0°C° 0 mm 3 mps 754 mmHg 88%
    03:00 0°C° 0 mm 3 mps 754 mmHg 89%
    04:00 -1°C° 0 mm 3 mps 754 mmHg 91%
    05:00 -1°C° 0 mm 3 mps 754 mmHg 92%
    06:00 -1°C° 0 mm 3 mps 755 mmHg 92%
    07:00 -1°C° 0 mm 3 mps 755 mmHg 92%
    08:00 -1°C° 0 mm 3 mps 755 mmHg 92%
    09:00 0°C° 0 mm 4 mps 754 mmHg 84%
    10:00 +1°C° 0 mm 5 mps 754 mmHg 76%
    11:00 +2°C° 0 mm 6 mps 754 mmHg 68%
    12:00 +3°C° 0 mm 6 mps 753 mmHg 65%
    13:00 +3°C° 0 mm 7 mps 753 mmHg 62%
    14:00 +4°C° 0 mm 7 mps 752 mmHg 59%
    15:00 +4°C° 0 mm 7 mps 751 mmHg 59%
    16:00 +4°C° 0 mm 7 mps 750 mmHg 60%
    17:00 +4°C° 0 mm 8 mps 748 mmHg 61%
    18:00 +4°C° 0 mm 8 mps 748 mmHg 61%
    19:00 +4°C° 0 mm 8 mps 747 mmHg 62%
    20:00 +4°C° 0 mm 8 mps 747 mmHg 63%
    21:00 +4°C° 0.1 mm 8 mps 746 mmHg 62%
    22:00 +5°C° 0.1 mm 9 mps 745 mmHg 62%
    23:00 +5°C° 0.1 mm 9 mps 744 mmHg 61%

    23 February, Sunday

    Time Temperature Precipitation Wind Pressure Humidity
    00:00 +5°C° 0 mm 9 mps 744 mmHg 61%
    01:00 +5°C° 0 mm 9 mps 744 mmHg 62%
    02:00 +6°C° 0 mm 9 mps 743 mmHg 62%
    03:00 +5°C° 0.3 mm 9 mps 743 mmHg 64%
    04:00 +3°C° 0.3 mm 9 mps 743 mmHg 66%
    05:00 +3°C° 0.3 mm 9 mps 743 mmHg 68%
    06:00 +2°C° 0 mm 9 mps 743 mmHg 68%
    07:00 +1°C° 0 mm 8 mps 744 mmHg 69%
    08:00 +1°C° 0 mm 8 mps 744 mmHg 69%
    09:00 +1°C° 0.1 mm 8 mps 744 mmHg 65%
    10:00 +2°C° 0.1 mm 9 mps 745 mmHg 62%
    11:00 +2°C° 0.1 mm 9 mps 745 mmHg 58%
    12:00 +2°C° 0.1 mm 9 mps 745 mmHg 56%
    13:00 +2°C° 0.1 mm 9 mps 745 mmHg 55%
    14:00 +3°C° 0.1 mm 9 mps 745 mmHg 53%
    15:00 +2°C° 0 mm 8 mps 745 mmHg 53%
    16:00 +2°C° 0 mm 8 mps 744 mmHg 53%
    17:00 +3°C° 0 mm 7 mps 744 mmHg 53%
    18:00 +2°C° 0 mm 6 mps 744 mmHg 57%
    19:00 +2°C° 0 mm 6 mps 744 mmHg 61%
    20:00 +1°C° 0 mm 5 mps 744 mmHg 66%
    21:00 +1°C° 0 mm 5 mps 743 mmHg 69%
    22:00 0°C° 0 mm 5 mps 743 mmHg 72%
    23:00 0°C° 0 mm 5 mps 742 mmHg 75%

    24 February, Monday

    Time Temperature Precipitation Wind Pressure Humidity
    00:00 0°C° 0 mm 5 mps 742 mmHg 79%
    01:00 0°C° 0 mm 5 mps 742 mmHg 83%
    02:00 0°C° 0 mm 5 mps 741 mmHg 87%
    03:00 -1°C° 0 mm 6 mps 741 mmHg 85%
    04:00 -1°C° 0 mm 6 mps 741 mmHg 83%
    05:00 -1°C° 0 mm 7 mps 742 mmHg 81%
    06:00 -1°C° 0 mm 7 mps 742 mmHg 81%
    07:00 -1°C° 0 mm 7 mps 743 mmHg 81%
    08:00 -1°C° 0 mm 7 mps 744 mmHg 80%
    09:00 0°C° 0 mm 8 mps 744 mmHg 75%
    10:00 +1°C° 0 mm 8 mps 745 mmHg 70%
    11:00 +2°C° 0 mm 8 mps 746 mmHg 64%
    12:00 +2°C° 0 mm 8 mps 746 mmHg 62%
    13:00 +3°C° 0 mm 7 mps 746 mmHg 59%
    14:00 +3°C° 0 mm 7 mps 747 mmHg 57%
    15:00 +3°C° 0 mm 7 mps 747 mmHg 56%
    16:00 +3°C° 0 mm 6 mps 747 mmHg 55%
    17:00 +3°C° 0 mm 6 mps 747 mmHg 54%
    18:00 +2°C° 0 mm 5 mps 748 mmHg 59%
    19:00 +3°C° 0 mm 4 mps 748 mmHg 64%
    20:00 +2°C° 0 mm 3 mps 749 mmHg 68%
    21:00 +1°C° 0 mm 3 mps 749 mmHg 72%
    22:00 +1°C° 0 mm 3 mps 749 mmHg 76%
    23:00 0°C° 0 mm 3 mps 749 mmHg 79%

    25 February, Tuesday

    Time Temperature Precipitation Wind Pressure Humidity
    00:00 0°C° 0 mm 3 mps 749 mmHg 80%
    01:00 0°C° 0 mm 3 mps 748 mmHg 82%
    02:00 0°C° 0 mm 3 mps 748 mmHg 83%
    03:00 0°C° 0 mm 3 mps 747 mmHg 82%
    04:00 0°C° 0 mm 3 mps 746 mmHg 82%
    05:00 -1°C° 0 mm 4 mps 746 mmHg 81%
    06:00 0°C° 0.1 mm 4 mps 745 mmHg 81%
    07:00 0°C° 0.1 mm 5 mps 744 mmHg 81%
    08:00 +1°C° 0.1 mm 6 mps 743 mmHg 81%
    09:00 +1°C° 0.4 mm 6 mps 743 mmHg 84%
    10:00 +2°C° 0.4 mm 6 mps 743 mmHg 87%
    11:00 +3°C° 0.4 mm 6 mps 742 mmHg 90%
    12:00 +4°C° 0.1 mm 6 mps 742 mmHg 89%
    13:00 +5°C° 0.1 mm 6 mps 742 mmHg 87%
    14:00 +6°C° 0.1 mm 5 mps 742 mmHg 86%
    15:00 +6°C° 0 mm 5 mps 741 mmHg 86%
    16:00 +6°C° 0 mm 4 mps 741 mmHg 85%
    17:00 +7°C° 0 mm 4 mps 741 mmHg 84%
    18:00 +6°C° 0 mm 4 mps 741 mmHg 87%
    19:00 +6°C° 0 mm 4 mps 741 mmHg 90%
    20:00 +5°C° 0 mm 4 mps 741 mmHg 93%
    21:00 +5°C° 0.3 mm 4 mps 741 mmHg 94%
    22:00 +5°C° 0.3 mm 4 mps 740 mmHg 94%
    23:00 +5°C° 0.3 mm 4 mps 740 mmHg 95%
    Show more